STARLINK-2714, 48603

Orbit data source: Space-Track

STARLINK-2714, 48603 is a payload satellite owned by SpaceX/Seattle (US) in LEO that was launched on Sat, 15 May 2021 UTC via an FALCON 9 launch vehicle from the Air Force Eastern Test Range (AFETR). Payload-class satellites include a variety of spacecraft equipped with specific instruments for various scientific and technological missions. These include communications satellites like Starlink; space stations such as the ISS; scientific satellites like the Hubble; Earth observation satellites from companies like Planet Labs, Umbra, and HawkEye 360; GPS; miniature CubeSats for education and research; and military/defense satellites.

Loading next visibility...
Identifier
48603, 2021-041BC
Orbit
LEO
Country
Flag of USUS
Related business
Manufacturer
SpaceX/Seattle
Mission
Operational Commercial Communications
Bus & Motor
STARLINK, Unknown motor
Mass
260 kg wet, ~248 kg dry
Launch date (UTC)
2021-05-15 (5 years ago)
Launch vehicle
FALCON 9
Launch site
Air Force Eastern Test Range (AFETR)
Object type
Payload
Rocket body
Debris
Shape & HBR
Box + 1 Pan, 10.1 m
Radar Cross Section
13.562 m², Large (>1 m²)

Expand to show TLE details & history
Last TLE update: 3 days ago

TLE from 3 days ago
0 STARLINK-2714
1 48603U 21041BC  26170.84593646 -.00000680  00000-0 -11220-4 0  9996
2 48603  53.1604 359.6364 0001454 121.7503 238.3639 15.29353787282344
Epoch: 2026-06-19T20:18Z
TLE epoch observation values (Epoch: 2026-06-19T20:18:08.910Z)
Latitude
-0.00002°
Longitude
147.0302°
Altitude
479.165 km
Speed
7.627 km/s
True Right ascension
23h 58m 32s
True Declination
0° 00' 00"
Sunlit
Object was in daylight at epoch
Visualization orbit readout
Latitude
Unknown
Longitude
Unknown
Altitude
Unknown
Speed
Unknown
Apparent Right ascension
Unknown
Apparent Declination
Unknown
Sunlit
N/A
Visualization observer readout
Local Sidereal Time
23:20:30
Azimuth
Unknown
Elevation
Unknown
Doppler factor
Unknown
Orbital elements
Apogee altitude
478.996 km
Perigee altitude
477.002 km
Semi-major axis
6,856.136 km
Eccentricity
0.00015
Inclination
53.1604°
RAAN
359.6364°
Arg. of periapsis
121.7503°
True anomaly
238.34972°
Mean anomaly
238.3639°
Eccentric anomaly
238.35681°
Mean motion
3.82317 °/min
Orbital period
94.16 mins
BSTAR
-0.00001122
Loading maneuver chart data...
Computing Atmospheric mass density...
Loading historical data...
Loading historical data...
Loading historical data...
Loading historical data...
Loading historical data...
Loading historical data...
Loading historical data...

Documentation

Showing up to 5 results
|